time, Switch, Flow(0), Analog(2)
yyyy/mm/dd HH:MM:SS.fff, True=FILTERED|False=TOTAL, L/min, V
2023/06/22 01:00:00.681, True, 4.787, 0.124819
2023/06/22 01:00:01.184, True, 4.319, 0.124590
2023/06/22 01:00:01.689, True, 4.309, 0.125200
2023/06/22 01:00:02.185, True, 4.374, 0.123064
2023/06/22 01:00:02.689, True, 4.320, 0.125582
2023/06/22 01:00:03.192, True, 4.307, 0.125277
2023/06/22 01:00:03.697, True, 3.643, 0.124361
2023/06/22 01:00:04.193, True, 2.695, 0.127031
2023/06/22 01:00:04.697, True, 1.661, 0.122759
2023/06/22 01:00:05.201, True, 1.655, 0.124971
2023/06/22 01:00:05.697, True, 1.350, 0.125200
2023/06/22 01:00:06.201, True, 1.654, 0.125811
2023/06/22 01:00:06.705, True, 1.658, 0.124437
2023/06/22 01:00:07.201, True, 1.685, 0.125505
2023/06/22 01:00:07.705, True, 1.657, 0.123903
2023/06/22 01:00:08.209, True, 1.661, 0.124437
2023/06/22 01:00:08.705, True, 1.345, 0.125048
2023/06/22 01:00:09.209, True, 1.658, 0.127794
2023/06/22 01:00:09.713, True, 1.659, 0.127260
2023/06/22 01:00:10.208, True, 1.684, 0.124666
2023/06/22 01:00:10.712, True, 1.658, 0.126192
2023/06/22 01:00:11.216, True, 1.658, 0.124514
2023/06/22 01:00:11.713, True, 1.349, 0.123674
2023/06/22 01:00:12.217, True, 1.657, 0.124895
2023/06/22 01:00:12.721, True, 1.658, 0.126345
2023/06/22 01:00:13.217, True, 1.685, 0.125811
2023/06/22 01:00:13.721, True, 1.658, 0.125124
2023/06/22 01:00:14.225, True, 1.658, 0.123217
2023/06/22 01:00:14.721, True, 1.685, 0.124437
2023/06/22 01:00:15.225, True, 1.658, 0.125277
2023/06/22 01:00:15.729, True, 1.658, 0.125505
2023/06/22 01:00:16.225, True, 1.685, 0.124971
2023/06/22 01:00:16.729, True, 1.661, 0.126116
2023/06/22 01:00:17.233, True, 1.656, 0.124361
2023/06/22 01:00:17.729, True, 1.684, 0.125505
2023/06/22 01:00:18.233, True, 1.658, 0.122606
2023/06/22 01:00:18.729, True, 1.685, 0.125353
2023/06/22 01:00:19.233, True, 1.658, 0.124285
2023/06/22 01:00:19.737, True, 1.658, 0.125277
2023/06/22 01:00:20.233, True, 1.685, 0.126574
2023/06/22 01:00:20.737, True, 1.659, 0.125734
2023/06/22 01:00:21.241, True, 1.659, 0.126879
2023/06/22 01:00:21.737, True, 1.682, 0.123827
2023/06/22 01:00:22.241, True, 1.658, 0.125734
2023/06/22 01:00:22.737, True, 1.685, 0.125353
2023/06/22 01:00:23.241, True, 1.659, 0.125429
2023/06/22 01:00:23.745, True, 1.657, 0.123827
2023/06/22 01:00:24.241, True, 1.685, 0.125734
2023/06/22 01:00:24.745, True, 1.659, 0.124437
2023/06/22 01:00:25.249, True, 1.657, 0.123903
2023/06/22 01:00:25.744, True, 1.685, 0.123598
2023/06/22 01:00:26.249, True, 1.659, 0.125811
2023/06/22 01:00:26.752, True, 1.658, 0.125963
2023/06/22 01:00:27.249, True, 1.347, 0.122835
2023/06/22 01:00:27.753, True, 1.658, 0.125734
2023/06/22 01:00:28.249, True, 1.685, 0.124056
2023/06/22 01:00:28.753, True, 1.657, 0.122377
2023/06/22 01:00:29.257, True, 1.660, 0.125353
2023/06/22 01:00:29.753, True, 1.684, 0.123903
2023/06/22 01:00:30.257, True, 1.990, 0.124895
2023/06/22 01:00:30.761, True, 1.657, 0.123445
2023/06/22 01:00:31.257, True, 1.685, 0.126421
2023/06/22 01:00:31.761, True, 1.658, 0.125200
2023/06/22 01:00:32.265, True, 1.658, 0.125353
2023/06/22 01:00:32.761, True, 1.687, 0.125200
2023/06/22 01:00:33.265, True, 1.325, 0.126040
2023/06/22 01:00:33.769, True, 1.660, 0.124514
2023/06/22 01:00:34.265, True, 1.682, 0.124590
2023/06/22 01:00:34.769, True, 1.658, 0.123598
2023/06/22 01:00:35.265, True, 1.685, 0.125277
2023/06/22 01:00:35.769, True, 1.658, 0.123293
2023/06/22 01:00:36.273, True, 1.658, 0.124743
2023/06/22 01:00:36.769, True, 1.685, 0.126192
2023/06/22 01:00:37.272, True, 1.658, 0.126650
2023/06/22 01:00:37.777, True, 1.658, 0.124132
2023/06/22 01:00:38.273, True, 1.685, 0.125353
2023/06/22 01:00:38.777, True, 1.658, 0.123674
2023/06/22 01:00:39.280, True, 1.658, 0.123522
2023/06/22 01:00:39.777, True, 1.685, 0.125963
2023/06/22 01:00:40.281, True, 1.658, 0.126726
2023/06/22 01:00:40.785, True, 1.658, 0.125124
2023/06/22 01:00:41.281, True, 1.348, 0.127108
2023/06/22 01:00:41.785, True, 1.658, 0.128176
2023/06/22 01:00:42.289, True, 1.658, 0.128252
2023/06/22 01:00:42.785, True, 1.685, 0.128099
2023/06/22 01:00:43.289, True, 1.658, 0.128328
2023/06/22 01:00:43.792, True, 1.661, 0.129931
2023/06/22 01:00:44.289, True, 1.682, 0.131456
2023/06/22 01:00:44.793, True, 1.658, 0.130770
2023/06/22 01:00:45.297, True, 1.658, 0.132296
2023/06/22 01:00:45.793, True, 1.685, 0.133135
2023/06/22 01:00:46.297, True, 1.328, 0.132143
2023/06/22 01:00:46.801, True, 1.657, 0.131762
2023/06/22 01:00:47.297, True, 1.685, 0.135195
2023/06/22 01:00:47.801, True, 1.658, 0.134356
2023/06/22 01:00:48.305, True, 1.990, 0.131685
2023/06/22 01:00:48.801, True, 1.684, 0.132525
2023/06/22 01:00:49.305, True, 1.326, 0.132448
2023/06/22 01:00:49.809, True, 1.658, 0.134737
2023/06/22 01:00:50.305, True, 1.685, 0.132677
2023/06/22 01:00:50.809, True, 1.660, 0.131304
2023/06/22 01:00:51.313, True, 1.656, 0.135576
2023/06/22 01:00:51.809, True, 1.348, 0.134585
2023/06/22 01:00:52.313, True, 1.658, 0.134966
2023/06/22 01:00:52.817, True, 1.661, 0.133822
2023/06/22 01:00:53.313, True, 1.683, 0.134890
2023/06/22 01:00:53.817, True, 1.657, 0.134203
2023/06/22 01:00:54.321, True, 1.658, 0.133516
2023/06/22 01:00:54.825, True, 1.658, 0.134966
2023/06/22 01:00:55.320, True, 1.685, 0.136568
2023/06/22 01:00:55.825, True, 1.658, 0.137636
2023/06/22 01:00:56.329, True, 1.658, 0.135958
2023/06/22 01:00:56.825, True, 1.348, 0.136873
2023/06/22 01:00:57.329, True, 1.658, 0.136645
2023/06/22 01:00:57.833, True, 1.658, 0.137484
2023/06/22 01:00:58.329, True, 1.685, 0.136110
2023/06/22 01:00:58.833, True, 1.658, 0.135653
2023/06/22 01:00:59.337, True, 1.658, 0.134966
2023/06/22 01:00:59.832, True, 1.685, 0.135958
2023/06/22 01:01:00.337, True, 1.657, 0.137865
2023/06/22 01:01:00.833, True, 1.685, 0.139086
2023/06/22 01:01:01.337, True, 1.658, 0.136645
2023/06/22 01:01:01.841, True, 1.326, 0.136645
2023/06/22 01:01:02.345, True, 1.326, 0.137865
2023/06/22 01:01:02.841, True, 1.685, 0.136797
2023/06/22 01:01:03.345, True, 1.658, 0.137713
2023/06/22 01:01:03.849, True, 1.326, 0.137560
2023/06/22 01:01:04.344, True, 1.348, 0.136873
2023/06/22 01:01:04.849, True, 1.658, 0.136721
2023/06/22 01:01:05.353, True, 1.658, 0.137713
2023/06/22 01:01:05.857, True, 1.658, 0.137407
2023/06/22 01:01:06.352, True, 1.687, 0.136645
2023/06/22 01:01:06.857, True, 1.656, 0.137560
2023/06/22 01:01:07.361, True, 1.658, 0.137560
2023/06/22 01:01:07.857, True, 1.684, 0.136110
2023/06/22 01:01:08.361, True, 1.658, 0.136492
2023/06/22 01:01:08.864, True, 1.327, 0.139010
2023/06/22 01:01:09.361, True, 1.686, 0.137026
2023/06/22 01:01:09.865, True, 1.656, 0.136492
2023/06/22 01:01:10.368, True, 1.658, 0.137407
2023/06/22 01:01:10.865, True, 1.686, 0.138628
2023/06/22 01:01:11.369, True, 1.326, 0.136492
2023/06/22 01:01:11.873, True, 1.659, 0.135805
2023/06/22 01:01:12.369, True, 1.347, 0.135882
2023/06/22 01:01:12.873, True, 1.658, 0.138247
2023/06/22 01:01:13.377, True, 1.661, 0.139544
2023/06/22 01:01:13.881, True, 1.655, 0.139086
2023/06/22 01:01:14.377, True, 1.349, 0.137636
2023/06/22 01:01:14.881, True, 1.657, 0.136339
2023/06/22 01:01:15.377, True, 1.684, 0.137636
2023/06/22 01:01:15.881, True, 1.658, 0.137407
2023/06/22 01:01:16.385, True, 1.658, 0.138170
2023/06/22 01:01:16.881, True, 1.685, 0.137713
2023/06/22 01:01:17.385, True, 1.327, 0.139315
2023/06/22 01:01:17.888, True, 1.658, 0.136416
2023/06/22 01:01:18.385, True, 1.348, 0.137942
2023/06/22 01:01:18.889, True, 1.658, 0.137179
2023/06/22 01:01:19.392, True, 1.658, 0.137942
2023/06/22 01:01:19.897, True, 1.658, 0.137484
2023/06/22 01:01:20.393, True, 1.347, 0.139239
2023/06/22 01:01:20.896, True, 1.658, 0.136950
2023/06/22 01:01:21.400, True, 1.658, 0.138323
2023/06/22 01:01:21.897, True, 1.685, 0.139010
2023/06/22 01:01:22.400, True, 1.658, 0.138552
2023/06/22 01:01:22.905, True, 1.658, 0.140154
2023/06/22 01:01:23.409, True, 1.658, 0.137484
2023/06/22 01:01:23.904, True, 1.685, 0.140230
2023/06/22 01:01:24.408, True, 1.658, 0.137942
2023/06/22 01:01:24.912, True, 1.658, 0.137865
2023/06/22 01:01:25.409, True, 1.348, 0.139696
2023/06/22 01:01:25.912, True, 1.658, 0.136645
2023/06/22 01:01:26.408, True, 1.685, 0.137102
2023/06/22 01:01:26.912, True, 1.658, 0.139544
2023/06/22 01:01:27.417, True, 1.661, 0.139620
2023/06/22 01:01:27.912, True, 1.682, 0.133669
2023/06/22 01:01:28.416, True, 1.658, 0.135882
2023/06/22 01:01:28.921, True, 1.661, 0.136110
2023/06/22 01:01:29.417, True, 1.685, 0.136492
2023/06/22 01:01:29.921, True, 1.655, 0.138399
2023/06/22 01:01:30.424, True, 1.658, 0.137102
2023/06/22 01:01:30.920, True, 1.687, 0.136492
2023/06/22 01:01:31.424, True, 1.656, 0.137942
2023/06/22 01:01:31.929, True, 1.658, 0.135653
2023/06/22 01:01:32.424, True, 1.349, 0.136873
2023/06/22 01:01:32.929, True, 1.659, 0.137179
2023/06/22 01:01:33.433, True, 1.655, 0.134737
2023/06/22 01:01:33.929, True, 1.688, 0.137407
2023/06/22 01:01:34.432, True, 1.658, 0.137484
2023/06/22 01:01:34.937, True, 1.655, 0.138170
2023/06/22 01:01:35.433, True, 1.685, 0.138018
2023/06/22 01:01:35.936, True, 1.659, 0.134813
2023/06/22 01:01:36.441, True, 1.657, 0.137484
2023/06/22 01:01:36.936, True, 1.348, 0.137560
2023/06/22 01:01:37.441, True, 1.658, 0.136187
2023/06/22 01:01:37.945, True, 1.658, 0.136263
2023/06/22 01:01:38.441, True, 1.688, 0.136263
2023/06/22 01:01:38.945, True, 1.655, 0.136492
2023/06/22 01:01:39.449, True, 1.327, 0.135729
2023/06/22 01:01:39.945, True, 1.684, 0.136797
2023/06/22 01:01:40.448, True, 1.657, 0.137560
2023/06/22 01:01:40.953, True, 1.658, 0.139010
2023/06/22 01:01:41.449, True, 1.685, 0.135500
2023/06/22 01:01:41.953, True, 1.658, 0.136339
2023/06/22 01:01:42.456, True, 1.327, 0.138857
2023/06/22 01:01:42.953, True, 1.685, 0.138552
2023/06/22 01:01:43.456, True, 1.658, 0.135805
2023/06/22 01:01:43.961, True, 1.326, 0.137331
2023/06/22 01:01:44.457, True, 1.688, 0.138476
2023/06/22 01:01:44.960, True, 1.655, 0.138170
2023/06/22 01:01:45.465, True, 1.660, 0.138781
2023/06/22 01:01:45.960, True, 1.685, 0.139010
2023/06/22 01:01:46.465, True, 1.655, 0.138170
2023/06/22 01:01:46.969, True, 1.658, 0.135119
2023/06/22 01:01:47.464, True, 1.684, 0.135805
2023/06/22 01:01:47.969, True, 1.658, 0.136492
2023/06/22 01:01:48.473, True, 1.658, 0.137789
2023/06/22 01:01:48.969, True, 1.348, 0.135882
2023/06/22 01:01:49.473, True, 1.658, 0.137789
2023/06/22 01:01:49.977, True, 1.658, 0.136568
2023/06/22 01:01:50.473, True, 1.685, 0.137636
2023/06/22 01:01:50.977, True, 1.326, 0.135500
2023/06/22 01:01:51.481, True, 1.658, 0.137865
2023/06/22 01:01:51.977, True, 1.685, 0.135424
2023/06/22 01:01:52.481, True, 1.658, 0.136645
2023/06/22 01:01:52.985, True, 1.658, 0.135576
2023/06/22 01:01:53.481, True, 1.684, 0.136797
2023/06/22 01:01:53.985, True, 1.658, 0.135958
2023/06/22 01:01:54.488, True, 1.659, 0.137713
2023/06/22 01:01:54.985, True, 1.683, 0.135348
2023/06/22 01:01:55.489, True, 1.326, 0.134890
2023/06/22 01:01:55.993, True, 1.658, 0.138247
2023/06/22 01:01:56.489, True, 1.685, 0.133516
2023/06/22 01:01:56.993, True, 1.660, 0.135424
2023/06/22 01:01:57.496, True, 1.656, 0.135805
2023/06/22 01:01:57.993, True, 1.685, 0.137789
2023/06/22 01:01:58.497, True, 1.658, 0.135653
2023/06/22 01:01:59.001, True, 1.327, 0.135958
2023/06/22 01:01:59.497, True, 1.684, 0.136187
2023/06/22 01:02:00.000, True, 1.658, 0.137179
2023/06/22 01:02:00.505, True, 1.658, 0.133898
2023/06/22 01:02:01.001, True, 1.685, 0.138399
2023/06/22 01:02:01.505, True, 1.659, 0.136263
2023/06/22 01:02:02.009, True, 1.657, 0.137026
2023/06/22 01:02:02.505, True, 1.686, 0.138094
2023/06/22 01:02:03.009, True, 1.657, 0.136568
2023/06/22 01:02:03.513, True, 1.658, 0.135500
2023/06/22 01:02:04.009, True, 1.348, 0.136339
2023/06/22 01:02:04.513, True, 1.658, 0.136645
2023/06/22 01:02:05.017, True, 1.658, 0.136263
2023/06/22 01:02:05.513, True, 1.684, 0.138018
2023/06/22 01:02:06.016, True, 1.658, 0.136263
2023/06/22 01:02:06.521, True, 1.658, 0.135271
2023/06/22 01:02:07.017, True, 1.684, 0.135424
2023/06/22 01:02:07.521, True, 1.658, 0.137102
2023/06/22 01:02:08.025, True, 1.992, 0.135348
2023/06/22 01:02:08.521, True, 1.682, 0.137179
2023/06/22 01:02:09.024, True, 1.326, 0.135195
2023/06/22 01:02:09.521, True, 1.685, 0.133211
2023/06/22 01:02:10.025, True, 1.658, 0.135653
2023/06/22 01:02:10.529, True, 1.327, 0.134051
2023/06/22 01:02:11.025, True, 1.685, 0.135958
2023/06/22 01:02:11.529, True, 1.657, 0.133974
2023/06/22 01:02:12.032, True, 1.658, 0.134508
2023/06/22 01:02:12.528, True, 1.685, 0.136568
2023/06/22 01:02:13.033, True, 1.658, 0.135424
2023/06/22 01:02:13.537, True, 1.659, 0.137331
2023/06/22 01:02:14.033, True, 1.684, 0.135576
2023/06/22 01:02:14.536, True, 1.658, 0.134813
2023/06/22 01:02:15.040, True, 1.658, 0.136187
2023/06/22 01:02:15.536, True, 1.685, 0.134890
2023/06/22 01:02:16.040, True, 1.658, 0.135576
2023/06/22 01:02:16.545, True, 1.327, 0.135500
2023/06/22 01:02:17.041, True, 1.685, 0.135882
2023/06/22 01:02:17.544, True, 1.658, 0.135882
2023/06/22 01:02:18.049, True, 1.658, 0.134966
2023/06/22 01:02:18.552, True, 1.658, 0.135882
2023/06/22 01:02:19.049, True, 1.685, 0.134890
2023/06/22 01:02:19.552, True, 1.658, 0.134585
2023/06/22 01:02:20.056, True, 1.660, 0.136492
2023/06/22 01:02:20.560, True, 1.656, 0.136187
2023/06/22 01:02:21.056, True, 1.685, 0.134051
2023/06/22 01:02:21.560, True, 1.658, 0.134585
2023/06/22 01:02:22.056, True, 1.685, 0.135500
2023/06/22 01:02:22.561, True, 1.658, 0.134966
2023/06/22 01:02:23.065, True, 1.658, 0.134737
2023/06/22 01:02:23.560, True, 1.685, 0.135042
2023/06/22 01:02:24.064, True, 1.658, 0.135195
2023/06/22 01:02:24.568, True, 1.329, 0.134585
2023/06/22 01:02:25.064, True, 1.681, 0.136339
2023/06/22 01:02:25.568, True, 1.658, 0.135882
2023/06/22 01:02:26.073, True, 1.658, 0.135500
2023/06/22 01:02:26.568, True, 1.684, 0.135500
2023/06/22 01:02:27.073, True, 1.659, 0.136492
2023/06/22 01:02:27.569, True, 1.683, 0.135042
2023/06/22 01:02:28.073, True, 1.658, 0.133364
2023/06/22 01:02:28.576, True, 1.658, 0.134813
2023/06/22 01:02:29.072, True, 1.685, 0.135653
2023/06/22 01:02:29.577, True, 1.657, 0.135729
2023/06/22 01:02:30.080, True, 1.658, 0.133745
2023/06/22 01:02:30.577, True, 1.347, 0.133822
2023/06/22 01:02:31.081, True, 1.658, 0.135348
2023/06/22 01:02:31.585, True, 1.658, 0.135805
2023/06/22 01:02:32.080, True, 1.685, 0.135348
2023/06/22 01:02:32.585, True, 1.658, 0.135042
2023/06/22 01:02:33.089, True, 1.658, 0.134585
2023/06/22 01:02:33.584, True, 1.685, 0.133593
2023/06/22 01:02:34.088, True, 1.328, 0.132143
2023/06/22 01:02:34.592, True, 1.656, 0.134356
2023/06/22 01:02:35.089, True, 1.685, 0.133898
2023/06/22 01:02:35.592, True, 1.658, 0.135195
2023/06/22 01:02:36.097, True, 1.658, 0.133593
2023/06/22 01:02:36.593, True, 1.685, 0.134661
2023/06/22 01:02:37.096, True, 1.326, 0.135119
2023/06/22 01:02:37.600, True, 1.658, 0.133440
2023/06/22 01:02:38.096, True, 1.685, 0.133364
2023/06/22 01:02:38.600, True, 1.657, 0.134127
2023/06/22 01:02:39.104, True, 1.327, 0.134813
2023/06/22 01:02:39.600, True, 1.685, 0.134890
2023/06/22 01:02:40.104, True, 1.658, 0.134585
2023/06/22 01:02:40.609, True, 1.659, 0.133745
2023/06/22 01:02:41.104, True, 1.685, 0.133593
2023/06/22 01:02:41.608, True, 1.657, 0.132677
2023/06/22 01:02:42.113, True, 1.660, 0.131533
2023/06/22 01:02:42.608, True, 1.684, 0.131762
2023/06/22 01:02:43.112, True, 1.657, 0.132067
2023/06/22 01:02:43.616, True, 1.659, 0.133135
2023/06/22 01:02:44.112, True, 1.685, 0.133440
2023/06/22 01:02:44.616, True, 1.657, 0.133135
2023/06/22 01:02:45.120, True, 1.659, 0.136187
2023/06/22 01:02:45.617, True, 1.349, 0.134432
2023/06/22 01:02:46.120, True, 1.656, 0.133593
2023/06/22 01:02:46.624, True, 1.658, 0.133516
2023/06/22 01:02:47.120, True, 1.686, 0.133745
2023/06/22 01:02:47.624, True, 1.656, 0.134890
2023/06/22 01:02:48.128, True, 1.660, 0.135042
2023/06/22 01:02:48.625, True, 1.346, 0.135348
2023/06/22 01:02:49.128, True, 1.658, 0.133211
2023/06/22 01:02:49.624, True, 1.685, 0.132219
2023/06/22 01:02:50.128, True, 1.658, 0.133822
2023/06/22 01:02:50.632, True, 1.658, 0.134203
2023/06/22 01:02:51.128, True, 1.685, 0.132753
2023/06/22 01:02:51.632, True, 1.658, 0.134051
2023/06/22 01:02:52.136, True, 1.658, 0.132906
2023/06/22 01:02:52.632, True, 1.347, 0.134432
2023/06/22 01:02:53.136, True, 1.659, 0.132677
2023/06/22 01:02:53.640, True, 1.659, 0.133211
2023/06/22 01:02:54.135, True, 1.683, 0.137179
2023/06/22 01:02:54.640, True, 1.659, 0.136034
2023/06/22 01:02:55.144, True, 1.659, 0.135500
2023/06/22 01:02:55.648, True, 1.656, 0.132906
2023/06/22 01:02:56.144, True, 1.348, 0.133898
2023/06/22 01:02:56.648, True, 1.658, 0.133288
2023/06/22 01:02:57.152, True, 1.659, 0.133669
2023/06/22 01:02:57.648, True, 1.347, 0.132525
2023/06/22 01:02:58.152, True, 1.658, 0.132296
2023/06/22 01:02:58.656, True, 1.658, 0.134279
2023/06/22 01:02:59.152, True, 1.685, 0.134508
2023/06/22 01:02:59.655, True, 1.658, 0.132677
2023/06/22 01:03:00.160, True, 1.660, 0.134585
2023/06/22 01:03:00.656, True, 1.683, 0.131380
2023/06/22 01:03:01.160, True, 1.326, 0.132525
2023/06/22 01:03:01.664, True, 1.660, 0.131991
2023/06/22 01:03:02.160, True, 1.684, 0.133898
2023/06/22 01:03:02.664, True, 1.656, 0.133135
2023/06/22 01:03:03.168, True, 1.660, 0.134661
2023/06/22 01:03:03.664, True, 1.685, 0.131075
2023/06/22 01:03:04.168, True, 1.657, 0.133440
2023/06/22 01:03:04.672, True, 1.659, 0.133135
2023/06/22 01:03:05.168, True, 1.348, 0.132067
2023/06/22 01:03:05.672, True, 1.658, 0.135271
2023/06/22 01:03:06.176, True, 1.655, 0.132448
2023/06/22 01:03:06.672, True, 1.687, 0.131991
2023/06/22 01:03:07.176, True, 1.326, 0.131304
2023/06/22 01:03:07.680, True, 1.658, 0.131380
2023/06/22 01:03:08.176, True, 1.685, 0.131991
2023/06/22 01:03:08.680, True, 1.659, 0.129397
2023/06/22 01:03:09.184, True, 1.658, 0.132677
2023/06/22 01:03:09.680, True, 1.682, 0.132982
2023/06/22 01:03:10.184, True, 1.658, 0.132143
2023/06/22 01:03:10.688, True, 1.326, 0.133745
2023/06/22 01:03:11.192, True, 1.659, 0.134279
2023/06/22 01:03:11.688, True, 1.347, 0.134051
2023/06/22 01:03:12.192, True, 1.660, 0.135119
2023/06/22 01:03:12.696, True, 1.325, 0.134051
2023/06/22 01:03:13.192, True, 1.349, 0.134051
2023/06/22 01:03:13.696, True, 1.656, 0.131991
2023/06/22 01:03:14.200, True, 1.326, 0.130999
2023/06/22 01:03:14.696, True, 1.685, 0.131151
2023/06/22 01:03:15.200, True, 1.327, 0.133288
2023/06/22 01:03:15.704, True, 1.658, 0.131380
2023/06/22 01:03:16.200, True, 1.347, 0.132830
2023/06/22 01:03:16.704, True, 1.326, 0.133059
2023/06/22 01:03:17.208, True, 1.658, 0.133440
2023/06/22 01:03:17.704, True, 1.349, 0.132830
2023/06/22 01:03:18.208, True, 1.656, 0.133669
2023/06/22 01:03:18.712, True, 1.327, 0.132448
2023/06/22 01:03:19.208, True, 1.685, 0.132219
2023/06/22 01:03:19.712, True, 1.658, 0.130465
2023/06/22 01:03:20.216, True, 1.326, 0.133669
2023/06/22 01:03:20.712, True, 1.685, 0.131914
2023/06/22 01:03:21.216, True, 1.658, 0.132601
2023/06/22 01:03:21.720, True, 1.328, 0.130541
2023/06/22 01:03:22.216, True, 1.348, 0.132448
2023/06/22 01:03:22.720, True, 1.656, 0.131762
2023/06/22 01:03:23.224, True, 1.658, 0.132448
2023/06/22 01:03:23.720, True, 1.348, 0.133211
2023/06/22 01:03:24.224, True, 1.658, 0.131609
2023/06/22 01:03:24.720, True, 1.348, 0.132296
2023/06/22 01:03:25.224, True, 1.658, 0.130770
2023/06/22 01:03:25.728, True, 1.658, 0.132219
2023/06/22 01:03:26.232, True, 1.328, 0.132143
2023/06/22 01:03:26.728, True, 1.683, 0.135424
2023/06/22 01:03:27.232, True, 1.658, 0.129702
2023/06/22 01:03:27.728, True, 1.348, 0.132830
2023/06/22 01:03:28.231, True, 1.329, 0.133211
2023/06/22 01:03:28.736, True, 1.324, 0.131228
2023/06/22 01:03:29.232, True, 1.348, 0.132601
2023/06/22 01:03:29.736, True, 1.326, 0.131609
2023/06/22 01:03:30.240, True, 1.326, 0.130159
2023/06/22 01:03:30.744, True, 1.327, 0.129091
2023/06/22 01:03:31.240, True, 1.348, 0.130846
2023/06/22 01:03:31.744, True, 1.658, 0.131914
2023/06/22 01:03:32.248, True, 1.327, 0.131228
2023/06/22 01:03:32.744, True, 1.348, 0.130617
2023/06/22 01:03:33.248, True, 1.658, 0.131991
2023/06/22 01:03:33.744, True, 1.348, 0.129854
2023/06/22 01:03:34.248, True, 1.658, 0.132448
2023/06/22 01:03:34.752, True, 1.326, 0.132525
2023/06/22 01:03:35.248, True, 1.685, 0.131609
2023/06/22 01:03:35.752, True, 1.658, 0.132219
2023/06/22 01:03:36.256, True, 1.658, 0.131685
2023/06/22 01:03:36.752, True, 1.348, 0.130617
2023/06/22 01:03:37.256, True, 1.990, 0.129931
2023/06/22 01:03:37.760, True, 1.658, 0.131228
2023/06/22 01:03:38.264, True, 1.658, 0.131456
2023/06/22 01:03:38.760, True, 1.685, 0.131991
2023/06/22 01:03:39.264, True, 1.660, 0.130694
2023/06/22 01:03:39.768, True, 1.656, 0.131304
2023/06/22 01:03:40.264, True, 2.022, 0.131380
2023/06/22 01:03:40.768, True, 1.658, 0.131304
2023/06/22 01:03:41.272, True, 1.993, 0.130694
2023/06/22 01:03:41.768, True, 1.682, 0.129854
2023/06/22 01:03:42.272, True, 1.989, 0.132143
2023/06/22 01:03:42.776, True, 1.658, 0.131456
2023/06/22 01:03:43.272, True, 1.685, 0.130694
2023/06/22 01:03:43.776, True, 1.989, 0.130846
2023/06/22 01:03:44.280, True, 1.659, 0.131685
2023/06/22 01:03:44.776, True, 1.684, 0.132219
2023/06/22 01:03:45.280, True, 1.659, 0.132219
2023/06/22 01:03:45.784, True, 1.657, 0.131609
2023/06/22 01:03:46.280, True, 1.686, 0.129625
2023/06/22 01:03:46.784, True, 1.657, 0.133135
2023/06/22 01:03:47.288, True, 1.658, 0.130922
2023/06/22 01:03:47.784, True, 2.021, 0.131838
2023/06/22 01:03:48.288, True, 1.658, 0.132677
2023/06/22 01:03:48.792, True, 1.658, 0.130312
2023/06/22 01:03:49.288, True, 1.686, 0.133822
2023/06/22 01:03:49.792, True, 1.988, 0.130617
2023/06/22 01:03:50.296, True, 1.658, 0.131838
2023/06/22 01:03:50.792, True, 1.684, 0.131533
2023/06/22 01:03:51.295, True, 1.661, 0.133211
2023/06/22 01:03:51.800, True, 1.655, 0.131762
2023/06/22 01:03:52.296, True, 1.685, 0.130694
2023/06/22 01:03:52.800, True, 1.658, 0.128023
2023/06/22 01:03:53.304, True, 1.990, 0.130922
2023/06/22 01:03:53.800, True, 1.685, 0.131151
2023/06/22 01:03:54.304, True, 1.658, 0.128023
2023/06/22 01:03:54.800, True, 1.684, 0.130159
2023/06/22 01:03:55.304, True, 1.990, 0.128405
2023/06/22 01:03:55.808, True, 1.658, 0.131991
2023/06/22 01:03:56.304, True, 1.687, 0.129931
2023/06/22 01:03:56.808, True, 1.655, 0.130007
2023/06/22 01:03:57.312, True, 1.658, 0.130846
2023/06/22 01:03:57.808, True, 1.685, 0.129778
2023/06/22 01:03:58.312, True, 1.661, 0.132067
2023/06/22 01:03:58.816, True, 1.655, 0.131151
2023/06/22 01:03:59.312, True, 1.685, 0.129854
2023/06/22 01:03:59.816, True, 1.658, 0.130159
2023/06/22 01:04:00.320, True, 1.989, 0.131914
2023/06/22 01:04:00.816, True, 1.685, 0.129549
2023/06/22 01:04:01.320, True, 1.658, 0.129549
2023/06/22 01:04:01.824, True, 1.990, 0.129778
2023/06/22 01:04:02.320, True, 1.685, 0.131456
2023/06/22 01:04:02.824, True, 1.993, 0.133745
2023/06/22 01:04:03.328, True, 1.656, 0.130694
2023/06/22 01:04:03.824, True, 1.684, 0.131456
2023/06/22 01:04:04.328, True, 1.990, 0.128252
2023/06/22 01:04:04.832, True, 1.658, 0.130083
2023/06/22 01:04:05.328, True, 1.686, 0.130312
2023/06/22 01:04:05.832, True, 1.657, 0.129549
2023/06/22 01:04:06.336, True, 1.658, 0.131685
2023/06/22 01:04:06.840, True, 1.658, 0.132296
2023/06/22 01:04:07.336, True, 2.023, 0.130007
2023/06/22 01:04:07.840, True, 1.657, 0.130159
2023/06/22 01:04:08.344, True, 1.658, 0.131762
2023/06/22 01:04:08.840, True, 1.684, 0.130083
2023/06/22 01:04:09.344, True, 1.990, 0.130159
2023/06/22 01:04:09.848, True, 1.659, 0.131380